Flag for Honduras Weather past 2 weeks in Choloma, Honduras

Now
81 °F

Passing clouds.


Feels Like: 86 °F
Forecast: 72 / 82 °F
Wind: 2 mph from East

Location: La Mesa San Pedro Sula

Current Time: Apr 1, 2015 at 9:32:23 AM

Latest Report: Apr 1, 2015 at 9:00 AM


Visibility: N/A

Pressure: 30.01 "Hg

Humidity: 84%

Dew point: 75 °F

Location of CholomaLocation

Historic Weather in Choloma — Graph

°F

Choloma temperature yesterday

Maximum temperature yesterday: 86 °F (at 2:00 PM)
Minimum temperature yesterday: 72 °F (at 3:00 AM)
Average temperature yesterday: 78 °F

Past Weeks' High & Low Weather Summary

 TemperatureHumidityPressure
High97 °F (Mar 26, 2:00 PM)100% (Mar 18, 4:00 AM)32.22 "Hg (Mar 18, 4:00 AM)
Low68 °F (Mar 18, 6:00 AM)44% (Mar 26, 1:00 PM)29.80 "Hg (Mar 26, 2:00 PM)
Average79 °F85%29.99 "Hg
* Reported Mar 17 8:00 AM — Apr 1 8:00 AM, Choloma, Weather by CustomWeather, © 2015

Note: Actual official high and low records may vary slightly from our data, if they occured in-between our weather recording intervals... More about our weather records

Advertising

Choloma weather history for previous 24 hours

 ConditionsComfort  
Time TempWeatherWind HumidityBarometerVisibility
8:00 AM
Wed, Apr 1
77 °FPassing clouds.2 mph100%30.01 "HgN/A
7:00 AM72 °FPassing clouds.3 mph100%30.01 "HgN/A
6:00 AM70 °FPassing clouds.No wind100%29.98 "HgN/A
5:00 AM72 °FPassing clouds.5 mph100%29.98 "HgN/A
4:00 AM72 °FPassing clouds.No wind100%29.95 "HgN/A
3:00 AM73 °FPassing clouds.5 mph100%29.95 "HgN/A
1:00 AM73 °FPassing clouds.5 mph100%29.98 "HgN/A
12:00 AM75 °FPassing clouds.No wind100%30.01 "HgN/A
11:00 PM
Tue, Mar 31
75 °FPassing clouds.5 mph100%30.04 "HgN/A
10:00 PM77 °FPassing clouds.6 mph94%30.04 "HgN/A
9:00 PM77 °FPartly cloudy.7 mph94%30.01 "HgN/A
8:00 PM77 °FPartly cloudy.9 mph94%29.98 "HgN/A
7:00 PM79 °FPartly cloudy.8 mph89%32.22 "HgN/A
6:00 PM79 °FScattered clouds.12 mph89%29.95 "HgN/A
5:00 PM82 °FScattered clouds.17 mph79%29.95 "HgN/A
4:00 PM84 °FScattered clouds.16 mph70%29.92 "HgN/A
3:00 PM84 °FScattered clouds.12 mph70%29.92 "HgN/A
2:00 PM86 °FScattered clouds.9 mph70%29.95 "HgN/A
1:00 PM84 °FScattered clouds.9 mph74%29.98 "HgN/A
12:00 PM84 °FBroken clouds.9 mph70%30.01 "HgN/A
11:00 AM84 °FBroken clouds.5 mph74%30.04 "HgN/A
10:00 AM81 °FBroken clouds.2 mph84%30.07 "HgN/A
9:00 AM79 °FPartly sunny.5 mph89%30.07 "HgN/A
Weather by CustomWeather, © 2015

See weather overviewHow to use our weather pages